Time,TemperatureF,DewpointF,PressureIn,WindDirection,WindDirectionDegrees,WindSpeedMPH,WindSpeedGustMPH,Humidity,HourlyPrecipIn,Conditions,Clouds,dailyrainin,SoftwareType,DateUTC
2013-03-23 00:00:00,33.7,20.5,29.74,West,281,0.0,0.0,58,0.00,,,0.01,Wunderground v.1.15,2013-03-23 04:00:00,
2013-03-23 00:10:00,34.1,20.4,29.74,NNW,332,1.0,3.0,57,0.00,,,0.01,Wunderground v.1.15,2013-03-23 04:10:00,
2013-03-23 00:20:00,34.3,21.0,29.74,North,350,1.0,3.0,58,0.00,,,0.01,Wunderground v.1.15,2013-03-23 04:20:00,
2013-03-23 00:30:00,34.3,20.2,29.75,South,186,1.0,1.0,56,0.00,,,0.01,Wunderground v.1.15,2013-03-23 04:30:00,
2013-03-23 00:40:00,34.3,19.4,29.75,ESE,104,1.0,1.0,54,0.00,,,0.01,Wunderground v.1.15,2013-03-23 04:40:00,
2013-03-23 00:50:00,34.0,19.1,29.74,NNE,28,1.0,1.0,54,0.00,,,0.01,Wunderground v.1.15,2013-03-23 04:50:00,
2013-03-23 01:00:00,33.5,18.6,29.75,NNW,335,1.0,1.0,54,0.00,,,0.01,Wunderground v.1.15,2013-03-23 05:00:00,
2013-03-23 01:10:00,33.7,17.9,29.75,NNE,28,1.0,1.0,52,0.00,,,0.00,Wunderground v.1.15,2013-03-23 05:10:00,
2013-03-23 01:20:00,33.5,17.7,29.74,NW,306,1.0,2.0,52,0.00,,,0.00,Wunderground v.1.15,2013-03-23 05:20:00,
2013-03-23 01:30:00,33.4,17.6,29.73,WNW,294,2.0,2.0,52,0.00,,,0.00,Wunderground v.1.15,2013-03-23 05:30:00,
2013-03-23 01:40:00,33.7,17.0,29.73,ESE,120,2.0,2.0,50,0.00,,,0.00,Wunderground v.1.15,2013-03-23 05:40:00,
2013-03-23 01:50:00,33.5,17.3,29.74,WSW,254,1.0,1.0,51,0.00,,,0.00,Wunderground v.1.15,2013-03-23 05:50:00,
2013-03-23 02:00:00,32.9,17.6,29.74,North,349,0.0,0.0,53,0.00,,,0.00,Wunderground v.1.15,2013-03-23 06:00:00,
2013-03-23 02:10:00,32.8,18.4,29.74,SW,236,0.0,0.0,55,0.00,,,0.00,Wunderground v.1.15,2013-03-23 06:10:00,
2013-03-23 02:20:00,32.7,17.9,29.74,NW,304,1.0,1.0,54,0.00,,,0.00,Wunderground v.1.15,2013-03-23 06:20:00,
2013-03-23 02:30:00,32.5,18.5,29.73,NNE,20,1.0,1.0,56,0.00,,,0.00,Wunderground v.1.15,2013-03-23 06:30:00,
2013-03-23 02:40:00,32.5,18.5,29.73,NE,56,1.0,1.0,56,0.00,,,0.00,Wunderground v.1.15,2013-03-23 06:40:00,
2013-03-23 02:50:00,32.5,18.1,29.73,North,353,1.0,1.0,55,0.00,,,0.00,Wunderground v.1.15,2013-03-23 06:50:00,
2013-03-23 03:00:00,32.7,18.7,29.73,NNW,346,1.0,1.0,56,0.00,,,0.00,Wunderground v.1.15,2013-03-23 07:00:00,
2013-03-23 03:10:00,32.5,18.1,29.73,NNW,340,0.0,0.0,55,0.00,,,0.00,Wunderground v.1.15,2013-03-23 07:10:00,
2013-03-23 03:20:00,32.1,19.0,29.73,North,350,0.0,0.0,58,0.00,,,0.00,Wunderground v.1.15,2013-03-23 07:20:00,
2013-03-23 03:30:00,31.5,19.2,29.73,North,350,0.0,0.0,60,0.00,,,0.00,Wunderground v.1.15,2013-03-23 07:30:00,
2013-03-23 03:40:00,30.7,19.6,29.73,North,350,0.0,0.0,63,0.00,,,0.00,Wunderground v.1.15,2013-03-23 07:40:00,
2013-03-23 03:50:00,30.3,19.2,29.73,West,278,0.0,0.0,63,0.00,,,0.00,Wunderground v.1.15,2013-03-23 07:50:00,
2013-03-23 04:00:00,30.1,18.6,29.73,NE,34,0.0,0.0,62,0.00,,,0.00,Wunderground v.1.15,2013-03-23 08:00:00,
2013-03-23 04:10:00,30.6,18.3,29.73,East,89,1.0,1.0,60,0.00,,,0.00,Wunderground v.1.15,2013-03-23 08:10:00,
2013-03-23 04:20:00,30.6,18.0,29.72,NW,322,0.0,0.0,59,0.00,,,0.00,Wunderground v.1.15,2013-03-23 08:20:00,
2013-03-23 04:30:00,30.9,17.4,29.72,SSW,202,0.0,0.0,57,0.00,,,0.00,Wunderground v.1.15,2013-03-23 08:30:00,
2013-03-23 04:40:00,30.9,17.8,29.72,West,264,0.0,0.0,58,0.00,,,0.00,Wunderground v.1.15,2013-03-23 08:40:00,
2013-03-23 04:50:00,31.2,18.1,29.73,SW,227,1.0,1.0,58,0.00,,,0.00,Wunderground v.1.15,2013-03-23 08:50:00,
2013-03-23 05:00:00,31.3,17.8,29.73,SW,224,0.0,0.0,57,0.00,,,0.00,Wunderground v.1.15,2013-03-23 09:00:00,
2013-03-23 05:10:00,31.8,18.7,29.73,West,264,1.0,2.0,58,0.00,,,0.00,Wunderground v.1.15,2013-03-23 09:10:00,
2013-03-23 05:20:00,31.6,17.7,29.73,North,352,1.0,1.0,56,0.00,,,0.00,Wunderground v.1.15,2013-03-23 09:20:00,
2013-03-23 05:30:00,31.5,18.4,29.73,SE,128,0.0,1.0,58,0.00,,,0.00,Wunderground v.1.15,2013-03-23 09:30:00,
2013-03-23 05:40:00,31.2,18.1,29.73,ENE,68,1.0,1.0,58,0.00,,,0.00,Wunderground v.1.15,2013-03-23 09:40:00,
2013-03-23 05:50:00,30.9,18.6,29.73,South,182,0.0,0.0,60,0.00,,,0.00,Wunderground v.1.15,2013-03-23 09:50:00,
2013-03-23 06:00:00,30.9,17.8,29.74,East,97,0.0,1.0,58,0.00,,,0.00,Wunderground v.1.15,2013-03-23 10:00:00,
2013-03-23 06:10:00,31.3,18.2,29.74,NW,311,1.0,1.0,58,0.00,,,0.00,Wunderground v.1.15,2013-03-23 10:10:00,
2013-03-23 06:20:00,31.5,18.4,29.74,WNW,289,1.0,2.0,58,0.00,,,0.00,Wunderground v.1.15,2013-03-23 10:20:00,
2013-03-23 06:30:00,31.5,17.6,29.74,ENE,64,1.0,1.0,56,0.00,,,0.00,Wunderground v.1.15,2013-03-23 10:30:00,
2013-03-23 06:40:00,31.5,18.4,29.74,ENE,71,1.0,1.0,58,0.00,,,0.00,Wunderground v.1.15,2013-03-23 10:40:00,
2013-03-23 06:50:00,31.8,18.7,29.74,NE,51,1.0,3.0,58,0.00,,,0.00,Wunderground v.1.15,2013-03-23 10:50:00,
2013-03-23 07:00:00,32.1,18.2,29.75,SE,128,2.0,2.0,56,0.00,,,0.00,Wunderground v.1.15,2013-03-23 11:00:00,
2013-03-23 07:10:00,32.1,18.6,29.75,NE,41,1.0,7.0,57,0.00,,,0.00,Wunderground v.1.15,2013-03-23 11:10:00,
2013-03-23 07:20:00,31.8,18.7,29.74,SW,223,1.0,2.0,58,0.00,,,0.00,Wunderground v.1.15,2013-03-23 11:20:00,
2013-03-23 07:30:00,31.8,18.7,29.75,NW,326,1.0,1.0,58,0.00,,,0.00,Wunderground v.1.15,2013-03-23 11:30:00,
2013-03-23 07:40:00,32.1,19.0,29.75,NNE,16,1.0,1.0,58,0.00,,,0.00,Wunderground v.1.15,2013-03-23 11:40:00,
2013-03-23 07:50:00,32.9,18.5,29.75,East,79,2.0,2.0,55,0.00,,,0.00,Wunderground v.1.15,2013-03-23 11:50:00,
2013-03-23 08:00:00,33.2,18.3,29.75,North,0,2.0,4.0,54,0.00,,,0.00,Wunderground v.1.15,2013-03-23 12:00:00,
2013-03-23 08:10:00,33.5,18.2,29.75,SE,134,2.0,2.0,53,0.00,,,0.00,Wunderground v.1.15,2013-03-23 12:10:00,
2013-03-23 08:20:00,33.7,18.4,29.75,NNE,13,1.0,8.0,53,0.00,,,0.00,Wunderground v.1.15,2013-03-23 12:20:00,
2013-03-23 08:30:00,34.0,18.6,29.74,ENE,72,1.0,2.0,53,0.00,,,0.00,Wunderground v.1.15,2013-03-23 12:30:00,
2013-03-23 08:40:00,34.4,18.6,29.74,West,268,1.0,1.0,52,0.00,,,0.00,Wunderground v.1.15,2013-03-23 12:40:00,
2013-03-23 08:50:00,34.4,19.0,29.74,East,99,1.0,2.0,53,0.00,,,0.00,Wunderground v.1.15,2013-03-23 12:50:00,
2013-03-23 09:00:00,34.7,19.3,29.73,ENE,73,2.0,2.0,53,0.00,,,0.00,Wunderground v.1.15,2013-03-23 13:00:00,
2013-03-23 09:10:00,35.0,20.0,29.73,NNW,346,1.0,5.0,54,0.00,,,0.00,Wunderground v.1.15,2013-03-23 13:10:00,
2013-03-23 09:20:00,35.2,19.3,29.72,SE,138,3.0,3.0,52,0.00,,,0.00,Wunderground v.1.15,2013-03-23 13:20:00,
2013-03-23 09:30:00,35.5,19.1,29.72,SSW,208,2.0,2.0,51,0.00,,,0.00,Wunderground v.1.15,2013-03-23 13:30:00,
2013-03-23 09:40:00,35.8,19.0,29.72,SW,220,2.0,2.0,50,0.00,,,0.00,Wunderground v.1.15,2013-03-23 13:40:00,
2013-03-23 09:50:00,35.9,19.0,29.71,NNE,20,2.0,2.0,50,0.00,,,0.00,Wunderground v.1.15,2013-03-23 13:50:00,
2013-03-23 10:00:00,36.5,19.1,29.71,SSE,162,3.0,3.0,49,0.00,,,0.00,Wunderground v.1.15,2013-03-23 14:00:00,
2013-03-23 10:10:00,37.2,20.7,29.71,SSW,213,2.0,3.0,51,0.00,,,0.00,Wunderground v.1.15,2013-03-23 14:10:00,
2013-03-23 10:20:00,37.0,19.6,29.72,ESE,116,2.0,2.0,49,0.00,,,0.00,Wunderground v.1.15,2013-03-23 14:20:00,
2013-03-23 10:30:00,37.8,18.8,29.72,North,356,2.0,6.0,46,0.00,,,0.00,Wunderground v.1.15,2013-03-23 14:30:00,
2013-03-23 10:40:00,38.6,19.1,29.72,NNE,30,3.0,5.0,45,0.00,,,0.00,Wunderground v.1.15,2013-03-23 14:40:00,
2013-03-23 10:50:00,38.6,20.1,29.72,SE,145,3.0,3.0,47,0.00,,,0.00,Wunderground v.1.15,2013-03-23 14:50:00,
2013-03-23 11:00:00,38.5,19.5,29.72,East,80,1.0,1.0,46,0.00,,,0.00,Wunderground v.1.15,2013-03-23 15:00:00,
2013-03-23 11:10:00,38.3,18.3,29.72,WSW,239,2.0,2.0,44,0.00,,,0.00,Wunderground v.1.15,2013-03-23 15:10:00,
2013-03-23 11:20:00,38.0,18.5,29.72,SSE,161,1.0,1.0,45,0.00,,,0.00,Wunderground v.1.15,2013-03-23 15:20:00,
2013-03-23 11:30:00,38.3,19.3,29.72,SE,145,1.0,2.0,46,0.00,,,0.00,Wunderground v.1.15,2013-03-23 15:30:00,
2013-03-23 11:40:00,38.5,19.0,29.72,WSW,243,2.0,2.0,45,0.00,,,0.00,Wunderground v.1.15,2013-03-23 15:40:00,
2013-03-23 11:50:00,38.9,20.4,29.72,East,92,1.0,1.0,47,0.00,,,0.00,Wunderground v.1.15,2013-03-23 15:50:00,
2013-03-23 12:00:00,39.1,19.0,29.72,North,350,1.0,2.0,44,0.00,,,0.00,Wunderground v.1.15,2013-03-23 16:00:00,
2013-03-23 12:10:00,39.8,21.2,29.72,ESE,107,2.0,5.0,47,0.00,,,0.00,Wunderground v.1.15,2013-03-23 16:10:00,
2013-03-23 12:20:00,40.3,18.4,29.72,SSW,202,3.0,3.0,41,0.00,,,0.00,Wunderground v.1.15,2013-03-23 16:20:00,
2013-03-23 12:30:00,40.8,18.9,29.71,North,356,2.0,2.0,41,0.00,,,0.00,Wunderground v.1.15,2013-03-23 16:30:00,
2013-03-23 12:40:00,41.5,20.6,29.71,NNE,13,2.0,10.0,43,0.00,,,0.00,Wunderground v.1.15,2013-03-23 16:40:00,
2013-03-23 12:50:00,41.9,19.9,29.70,East,96,3.0,3.0,41,0.00,,,0.00,Wunderground v.1.15,2013-03-23 16:50:00,
2013-03-23 13:00:00,40.8,17.7,29.71,WNW,302,1.0,5.0,39,0.00,,,0.00,Wunderground v.1.15,2013-03-23 17:00:00,
2013-03-23 13:10:00,41.6,20.2,29.71,SSW,212,2.0,8.0,42,0.00,,,0.00,Wunderground v.1.15,2013-03-23 17:10:00,
2013-03-23 13:20:00,42.3,17.2,29.71,West,281,3.0,3.0,36,0.00,,,0.00,Wunderground v.1.15,2013-03-23 17:20:00,
2013-03-23 13:30:00,41.9,17.5,29.70,North,356,3.0,4.0,37,0.00,,,0.00,Wunderground v.1.15,2013-03-23 17:30:00,
2013-03-23 13:40:00,41.2,16.9,29.70,East,82,2.0,2.0,37,0.00,,,0.00,Wunderground v.1.15,2013-03-23 17:40:00,
2013-03-23 13:50:00,42.1,18.9,29.69,East,88,1.0,2.0,39,0.00,,,0.00,Wunderground v.1.15,2013-03-23 17:50:00,
2013-03-23 14:00:00,42.9,17.1,29.68,SW,229,1.0,1.0,35,0.00,,,0.00,Wunderground v.1.15,2013-03-23 18:00:00,
2013-03-23 14:10:00,42.8,17.0,29.68,West,263,2.0,2.0,35,0.00,,,0.00,Wunderground v.1.15,2013-03-23 18:10:00,
2013-03-23 14:20:00,42.8,16.3,29.69,SSW,193,3.0,7.0,34,0.00,,,0.00,Wunderground v.1.15,2013-03-23 18:20:00,
2013-03-23 14:30:00,41.8,16.1,29.68,SW,233,3.0,3.0,35,0.00,,,0.00,Wunderground v.1.15,2013-03-23 18:30:00,
2013-03-23 14:40:00,41.8,18.6,29.68,NE,49,2.0,7.0,39,0.00,,,0.00,Wunderground v.1.15,2013-03-23 18:40:00,
2013-03-23 14:50:00,42.2,19.0,29.67,South,185,2.0,2.0,39,0.00,,,0.00,Wunderground v.1.15,2013-03-23 18:50:00,
2013-03-23 15:00:00,43.6,17.0,29.67,NW,325,2.0,5.0,34,0.00,,,0.00,Wunderground v.1.15,2013-03-23 19:00:00,
2013-03-23 15:10:00,44.6,18.6,29.67,SW,215,2.0,2.0,35,0.00,,,0.00,Wunderground v.1.15,2013-03-23 19:10:00,
2013-03-23 15:20:00,44.2,14.7,29.67,South,172,2.0,2.0,30,0.00,,,0.00,Wunderground v.1.15,2013-03-23 19:20:00,
2013-03-23 15:30:00,44.2,16.9,29.66,SSW,205,2.0,4.0,33,0.00,,,0.00,Wunderground v.1.15,2013-03-23 19:30:00,
2013-03-23 15:40:00,45.5,19.4,29.66,SW,236,2.0,2.0,35,0.00,,,0.00,Wunderground v.1.15,2013-03-23 19:40:00,
2013-03-23 15:50:00,43.5,16.9,29.66,South,171,3.0,3.0,34,0.00,,,0.00,Wunderground v.1.15,2013-03-23 19:50:00,
2013-03-23 16:00:00,43.9,15.2,29.66,SW,220,2.0,3.0,31,0.00,,,0.00,Wunderground v.1.15,2013-03-23 20:00:00,
2013-03-23 16:10:00,44.3,17.0,29.66,SW,220,2.0,4.0,33,0.00,,,0.00,Wunderground v.1.15,2013-03-23 20:10:00,
2013-03-23 16:20:00,43.5,16.9,29.65,WNW,282,3.0,3.0,34,0.00,,,0.00,Wunderground v.1.15,2013-03-23 20:20:00,
2013-03-23 16:30:00,42.6,15.5,29.66,SW,226,2.0,2.0,33,0.00,,,0.00,Wunderground v.1.15,2013-03-23 20:30:00,
2013-03-23 16:40:00,42.5,15.4,29.66,NW,325,1.0,1.0,33,0.00,,,0.00,Wunderground v.1.15,2013-03-23 20:40:00,
2013-03-23 16:50:00,43.9,15.2,29.66,SSW,193,1.0,1.0,31,0.00,,,0.00,Wunderground v.1.15,2013-03-23 20:50:00,
2013-03-23 17:00:00,43.3,14.6,29.67,SSE,164,2.0,2.0,31,0.00,,,0.00,Wunderground v.1.15,2013-03-23 21:00:00,
2013-03-23 17:10:00,43.1,14.5,29.67,SSW,209,2.0,3.0,31,0.00,,,0.00,Wunderground v.1.15,2013-03-23 21:10:00,
2013-03-23 17:20:00,42.1,13.6,29.67,South,174,2.0,2.0,31,0.00,,,0.00,Wunderground v.1.15,2013-03-23 21:20:00,
2013-03-23 17:30:00,41.6,13.9,29.67,SW,232,2.0,2.0,32,0.00,,,0.00,Wunderground v.1.15,2013-03-23 21:30:00,
2013-03-23 17:40:00,41.9,14.1,29.67,SW,219,3.0,3.0,32,0.00,,,0.00,Wunderground v.1.15,2013-03-23 21:40:00,
2013-03-23 17:50:00,41.2,15.6,29.68,SSW,200,2.0,2.0,35,0.00,,,0.01,Wunderground v.1.15,2013-03-23 21:50:00,
2013-03-23 18:00:00,40.6,15.7,29.68,SSE,165,2.0,2.0,36,0.00,,,0.01,Wunderground v.1.15,2013-03-23 22:00:00,
2013-03-23 18:10:00,40.1,15.2,29.68,SSE,165,1.0,1.0,36,0.00,,,0.01,Wunderground v.1.15,2013-03-23 22:10:00,
2013-03-23 18:20:00,39.6,16.0,29.69,SSW,200,1.0,1.0,38,0.00,,,0.01,Wunderground v.1.15,2013-03-23 22:20:00,
2013-03-23 18:30:00,39.8,15.0,29.69,ENE,68,3.0,3.0,36,0.00,,,0.01,Wunderground v.1.15,2013-03-23 22:30:00,
2013-03-23 18:40:00,39.5,14.1,29.69,SSE,167,2.0,5.0,35,0.00,,,0.01,Wunderground v.1.15,2013-03-23 22:40:00,
2013-03-23 18:50:00,39.3,17.0,29.70,SW,232,2.0,2.0,40,0.00,,,0.01,Wunderground v.1.15,2013-03-23 22:50:00,
2013-03-23 19:00:00,38.9,15.4,29.70,ENE,71,1.0,3.0,38,0.00,,,0.01,Wunderground v.1.15,2013-03-23 23:00:00,
2013-03-23 19:10:00,38.6,15.1,29.70,South,175,2.0,2.0,38,0.00,,,0.01,Wunderground v.1.15,2013-03-23 23:10:00,
2013-03-23 19:20:00,38.3,14.9,29.71,North,0,1.0,2.0,38,0.00,,,0.01,Wunderground v.1.15,2013-03-23 23:20:00,
2013-03-23 19:30:00,38.5,15.1,29.72,SSE,147,2.0,2.0,38,0.00,,,0.01,Wunderground v.1.15,2013-03-23 23:30:00,
2013-03-23 19:40:00,38.2,15.4,29.72,East,93,1.0,1.0,39,0.00,,,0.01,Wunderground v.1.15,2013-03-23 23:40:00,
2013-03-23 19:50:00,38.0,16.4,29.72,WSW,251,1.0,2.0,41,0.00,,,0.01,Wunderground v.1.15,2013-03-23 23:50:00,
2013-03-23 20:00:00,37.6,16.0,29.72,SW,234,1.0,1.0,41,0.00,,,0.01,Wunderground v.1.15,2013-03-24 00:00:00,
2013-03-23 20:10:00,37.6,16.0,29.72,NW,319,1.0,2.0,41,0.00,,,0.01,Wunderground v.1.15,2013-03-24 00:10:00,
2013-03-23 20:20:00,37.3,16.3,29.74,NNW,339,1.0,6.0,42,0.00,,,0.01,Wunderground v.1.15,2013-03-24 00:20:00,
2013-03-23 20:30:00,37.3,15.7,29.75,NE,34,2.0,2.0,41,0.00,,,0.01,Wunderground v.1.15,2013-03-24 00:30:00,
2013-03-23 20:40:00,37.2,15.6,29.75,ESE,102,2.0,2.0,41,0.00,,,0.01,Wunderground v.1.15,2013-03-24 00:40:00,
2013-03-23 20:50:00,36.8,16.4,29.75,SE,133,1.0,2.0,43,0.00,,,0.01,Wunderground v.1.15,2013-03-24 00:50:00,
2013-03-23 21:00:00,36.3,17.0,29.75,WSW,256,1.0,3.0,45,0.00,,,0.01,Wunderground v.1.15,2013-03-24 01:00:00,
2013-03-23 21:10:00,36.3,17.0,29.75,NW,308,1.0,1.0,45,0.00,,,0.01,Wunderground v.1.15,2013-03-24 01:10:00,
2013-03-23 21:20:00,36.3,15.4,29.76,South,175,1.0,1.0,42,0.00,,,0.01,Wunderground v.1.15,2013-03-24 01:20:00,
2013-03-23 21:30:00,35.9,15.5,29.77,West,260,1.0,1.0,43,0.00,,,0.01,Wunderground v.1.15,2013-03-24 01:30:00,
2013-03-23 21:40:00,35.9,15.5,29.77,SSW,199,1.0,1.0,43,0.00,,,0.01,Wunderground v.1.15,2013-03-24 01:40:00,
2013-03-23 21:50:00,35.5,16.7,29.76,SW,220,0.0,0.0,46,0.00,,,0.01,Wunderground v.1.15,2013-03-24 01:50:00,
2013-03-23 22:00:00,35.3,16.6,29.76,NW,326,1.0,3.0,46,0.00,,,0.01,Wunderground v.1.15,2013-03-24 02:00:00,
2013-03-23 22:10:00,35.6,16.8,29.76,South,176,2.0,3.0,46,0.00,,,0.01,Wunderground v.1.15,2013-03-24 02:10:00,
2013-03-23 22:20:00,35.5,15.7,29.77,SW,216,1.0,1.0,44,0.00,,,0.01,Wunderground v.1.15,2013-03-24 02:20:00,
2013-03-23 22:30:00,35.5,16.2,29.77,NNE,16,1.0,2.0,45,0.00,,,0.01,Wunderground v.1.15,2013-03-24 02:30:00,
2013-03-23 22:40:00,34.9,17.2,29.77,NE,47,1.0,1.0,48,0.00,,,0.01,Wunderground v.1.15,2013-03-24 02:40:00,
2013-03-23 22:50:00,34.6,16.9,29.77,SSE,160,0.0,0.0,48,0.00,,,0.01,Wunderground v.1.15,2013-03-24 02:50:00,
2013-03-23 23:00:00,34.4,17.2,29.78,South,189,0.0,0.0,49,0.00,,,0.01,Wunderground v.1.15,2013-03-24 03:00:00,
2013-03-23 23:10:00,34.7,17.5,29.78,NE,44,2.0,2.0,49,0.00,,,0.01,Wunderground v.1.15,2013-03-24 03:10:00,
2013-03-23 23:20:00,34.6,16.9,29.78,SSE,152,1.0,1.0,48,0.00,,,0.01,Wunderground v.1.15,2013-03-24 03:20:00,
2013-03-23 23:30:00,34.0,17.3,29.78,WSW,253,1.0,1.0,50,0.00,,,0.01,Wunderground v.1.15,2013-03-24 03:30:00,
2013-03-23 23:40:00,33.8,17.1,29.78,WSW,248,0.0,0.0,50,0.00,,,0.01,Wunderground v.1.15,2013-03-24 03:40:00,
2013-03-23 23:50:00,33.8,18.5,29.79,East,85,0.0,1.0,53,0.00,,,0.01,Wunderground v.1.15,2013-03-24 03:50:00,